XE2KK-10 Weather Reports


time (UTC)temp
C
wind
direction
speed
KPH
gust
KPH
rain 1hr
cm
rain 24hr
cm
rain mn
cm
humidity
%
barometer
mb
20260504003412 27 66 4.8 6.4 0.00 0.00 0.00 42 1014.7
20260504002912 27 5 8.0 16.1 0.00 0.00 0.00 41 1015.0
20260504002412 27 10 4.8 6.4 0.00 0.00 0.00 42 1014.8
20260504001912 27 33 4.8 8.0 0.00 0.00 0.00 42 1015.0
20260504001412 27 24 9.7 11.3 0.00 0.00 0.00 41 1015.0
20260504000913 27 79 4.8 4.8 0.00 0.00 0.00 41 1014.9
20260504000412 27 335 8.0 14.5 0.00 0.00 0.00 41 1015.0
20260503235912 27 61 8.0 9.7 0.00 0.00 0.00 41 1014.9
20260503235412 27 125 6.4 14.5 0.00 0.00 0.00 41 1014.9
20260503234913 27 12 4.8 6.4 0.00 0.00 0.00 41 1014.9
20260503234413 27 63 8.0 11.3 0.00 0.00 0.00 40 1015.0
20260503233913 27 62 9.7 14.5 0.00 0.00 0.00 40 1015.0
20260503233412 27 9 1.6 3.2 0.00 0.00 0.00 41 1014.8
20260503232912 28 25 3.2 4.8 0.00 0.00 0.00 40 1015.0
20260503232412 27 49 9.7 14.5 0.00 0.00 0.00 40 1014.7
20260503231912 28 29 9.7 14.5 0.00 0.00 0.00 40 1014.9
20260503231412 27 339 6.4 8.0 0.00 0.00 0.00 40 1015.0
20260503230913 28 22 8.0 9.7 0.00 0.00 0.00 40 1015.1
20260503230412 28 43 3.2 4.8 0.00 0.00 0.00 40 1015.0
20260503225912 28 7 4.8 6.4 0.00 0.00 0.00 40 1014.9
20260503225412 27 340 4.8 6.4 0.00 0.00 0.00 40 1015.2
20260503224913 27 74 9.7 14.5 0.00 0.00 0.00 40 1015.1
20260503224413 28 100 4.8 9.7 0.00 0.00 0.00 41 1014.9
20260503223913 27 92 8.0 14.5 0.00 0.00 0.00 41 1014.9
20260503223412 28 86 3.2 4.8 0.00 0.00 0.00 40 1015.0
20260503222912 28 282 8.0 8.0 0.00 0.00 0.00 40 1015.2
20260503222412 27 46 9.7 14.5 0.00 0.00 0.00 40 1015.1
20260503221913 28 25 6.4 8.0 0.00 0.00 0.00 41 1015.2
20260503221413 28 28 9.7 9.7 0.00 0.00 0.00 40 1015.3
20260503220913 27 89 4.8 6.4 0.00 0.00 0.00 41 1015.3
20260503220412 27 30 3.2 4.8 0.00 0.00 0.00 41 1015.6
20260503215912 27 83 9.7 11.3 0.00 0.00 0.00 41 1015.6
20260503215412 28 6 4.8 6.4 0.00 0.00 0.00 41 1015.7
20260503214913 27 260 4.8 4.8 0.00 0.00 0.00 41 1015.9
20260503214413 27 330 4.8 6.4 0.00 0.00 0.00 42 1015.8
20260503213913 27 14 9.7 11.3 0.00 0.00 0.00 41 1016.1
20260503213412 27 100 6.4 8.0 0.00 0.00 0.00 42 1016.3
20260503212912 27 138 6.4 6.4 0.00 0.00 0.00 42 1016.3
20260503212412 27 67 4.8 6.4 0.00 0.00 0.00 42 1016.7
20260503211913 27 1 1.6 3.2 0.00 0.00 0.00 42 1016.7
20260503211413 27 47 6.4 8.0 0.00 0.00 0.00 43 1016.9
20260503210913 27 306 8.0 9.7 0.00 0.00 0.00 42 1016.7
20260503210412 27 75 8.0 11.3 0.00 0.00 0.00 43 1017.1
20260503205912 27 23 3.2 4.8 0.00 0.00 0.00 42 1016.9
20260503205412 26 85 1.6 4.8 0.00 0.00 0.00 43 1017.2
20260503204912 26 112 4.8 8.0 0.00 0.00 0.00 43 1017.5
20260503204412 27 264 6.4 8.0 0.00 0.00 0.00 42 1017.5
20260503203913 27 341 3.2 4.8 0.00 0.00 0.00 43 1017.8
20260503203412 26 287 1.6 3.2 0.00 0.00 0.00 45 1018.1
20260503202912 26 158 1.6 3.2 0.00 0.00 0.00 44 1018.2
20260503202412 26 341 4.8 6.4 0.00 0.00 0.00 44 1018.0
20260503201912 26 346 6.4 14.5 0.00 0.00 0.00 45 1018.3
20260503201413 26 267 3.2 3.2 0.00 0.00 0.00 45 1018.3
20260503200913 26 277 8.0 11.3 0.00 0.00 0.00 45 1018.5
20260503200412 26 277 6.4 6.4 0.00 0.00 0.00 45 1018.5
20260503195912 25 69 8.0 8.0 0.00 0.00 0.00 46 1018.7
20260503195412 26 87 3.2 4.8 0.00 0.00 0.00 45 1018.4
20260503194913 25 349 3.2 4.8 0.00 0.00 0.00 47 1018.7
20260503194413 25 123 3.2 4.8 0.00 0.00 0.00 47 1018.4
20260503193913 25 38 6.4 9.7 0.00 0.00 0.00 47 1018.8
20260503193412 25 291 1.6 3.2 0.00 0.00 0.00 48 1018.5
20260503192912 25 286 6.4 8.0 0.00 0.00 0.00 46 1018.8
20260503192412 24 315 8.0 8.0 0.00 0.00 0.00 48 1019.1
20260503191913 24 308 8.0 11.3 0.00 0.00 0.00 49 1019.0
20260503191413 24 262 1.6 3.2 0.00 0.00 0.00 49 1019.2
20260503190913 23 88 3.2 4.8 0.00 0.00 0.00 51 1019.5
20260503190412 23 312 3.2 4.8 0.00 0.00 0.00 50 1019.4
20260503185912 23 72 3.2 4.8 0.00 0.00 0.00 50 1019.6
20260503185412 23 359 9.7 11.3 0.00 0.00 0.00 50 1019.7
20260503184913 23 18 3.2 4.8 0.00 0.00 0.00 49 1019.8
20260503184413 24 286 8.0 9.7 0.00 0.00 0.00 48 1020.2
20260503183913 22 154 6.4 8.0 0.00 0.00 0.00 51 1020.3
20260503183413 22 103 4.8 8.0 0.00 0.00 0.00 51 1020.4
20260503182913 23 165 6.4 9.7 0.00 0.00 0.00 49 1020.6
20260503182413 23 28 6.4 6.4 0.00 0.00 0.00 50 1020.8
20260503181913 23 52 3.2 3.2 0.00 0.00 0.00 49 1021.1
20260503181413 23 78 1.6 3.2 0.00 0.00 0.00 50 1021.0
20260503180913 23 8 3.2 4.8 0.00 0.00 0.00 50 1021.2
20260503180412 23 70 3.2 4.8 0.00 0.00 0.00 50 1021.2
20260503175912 22 242 1.6 3.2 0.00 0.00 0.00 51 1021.5
20260503175412 22 125 3.2 4.8 0.00 0.00 0.00 51 1021.6
20260503174913 23 135 3.2 4.8 0.00 0.00 0.00 50 1021.6
20260503174412 22 173 3.2 4.8 0.00 0.00 0.00 50 1021.7
20260503173913 21 149 3.2 6.4 0.00 0.00 0.00 52 1021.7
20260503173412 21 192 1.6 3.2 0.00 0.00 0.00 53 1021.9
20260503172912 22 95 8.0 9.7 0.00 0.00 0.00 51 1022.0
20260503172413 22 249 1.6 3.2 0.00 0.00 0.00 50 1022.0
20260503171913 21 51 4.8 8.0 0.00 0.00 0.00 53 1022.1
20260503171413 22 180 4.8 4.8 0.00 0.00 0.00 51 1022.4
20260503170913 22 120 4.8 6.4 0.00 0.00 0.00 51 1022.1
20260503170412 21 199 3.2 3.2 0.00 0.00 0.00 53 1022.4
20260503150913 19 262 3.2 4.8 0.00 0.00 0.00 56 1023.1
20260503150412 19 294 1.6 3.2 0.00 0.00 0.00 55 1023.1
20260503131412 16 224 1.6 3.2 0.00 0.00 0.00 66 1022.4
20260503130913 16 260 1.6 3.2 0.00 0.00 0.00 67 1022.1
20260503130413 16 256 3.2 4.8 0.00 0.00 0.00 67 1022.3
20260503110412 15 240 0.0 0.0 0.00 0.00 0.00 71 1020.7
20260503090412 16 208 4.8 6.4 0.00 0.00 0.00 68 1021.0
20260503081412 15 227 3.2 4.8 0.00 0.00 0.00 67 1021.2
20260503080913 15 213 3.2 4.8 0.00 0.00 0.00 67 1021.3
20260503080412 15 225 3.2 4.8 0.00 0.00 0.00 68 1021.1
20260503072912 15 170 8.0 9.7 0.00 0.00 0.00 69 1021.4
20260503072413 15 191 8.0 9.7 0.00 0.00 0.00 68 1021.5
20260503071912 15 218 3.2 4.8 0.00 0.00 0.00 67 1021.5
20260503071412 15 260 1.6 3.2 0.00 0.00 0.00 67 1021.2
20260503070912 15 265 3.2 4.8 0.00 0.00 0.00 67 1021.3
20260503070413 15 231 0.0 0.0 0.00 0.00 0.00 68 1021.2
20260503054912 16 286 3.2 3.2 0.00 0.00 0.00 67 1021.6
20260503054412 17 306 3.2 4.8 0.00 0.00 0.00 66 1021.3
20260503053912 17 302 3.2 4.8 0.00 0.00 0.00 65 1021.6
20260503053413 17 318 4.8 6.4 0.00 0.00 0.00 65 1021.5
20260503052913 17 334 4.8 4.8 0.00 0.00 0.00 65 1021.5
20260503052413 17 324 6.4 8.0 0.00 0.00 0.00 65 1021.4
20260503051912 17 326 4.8 6.4 0.00 0.00 0.00 65 1021.5
20260503051412 17 280 3.2 4.8 0.00 0.00 0.00 64 1021.6
20260503050913 17 355 6.4 8.0 0.00 0.00 0.00 64 1021.7
20260503050413 17 349 4.8 8.0 0.00 0.00 0.00 64 1021.6
20260503045913 17 294 3.2 4.8 0.00 0.00 0.00 65 1021.4
20260503045413 17 317 3.2 4.8 0.00 0.00 0.00 65 1021.3
20260503044912 17 327 1.6 3.2 0.00 0.00 0.00 65 1021.4
20260503044412 17 346 4.8 8.0 0.00 0.00 0.00 64 1021.3
20260503043912 17 305 3.2 4.8 0.00 0.00 0.00 63 1021.5
20260503043413 18 33 3.2 4.8 0.00 0.00 0.00 63 1021.3
20260503042913 18 357 3.2 4.8 0.00 0.00 0.00 62 1021.2
20260503042413 18 29 3.2 4.8 0.00 0.00 0.00 62 1021.5
20260503041912 18 51 3.2 4.8 0.00 0.00 0.00 61 1021.4
20260503041412 18 36 4.8 8.0 0.00 0.00 0.00 61 1021.4
20260503040912 18 354 6.4 6.4 0.00 0.00 0.00 60 1021.7
20260503040413 18 336 3.2 4.8 0.00 0.00 0.00 60 1021.2
20260503035912 18 53 3.2 4.8 0.00 0.00 0.00 60 1021.4
20260503035412 18 271 1.6 3.2 0.00 0.00 0.00 60 1021.5
20260503034912 18 254 1.6 3.2 0.00 0.00 0.00 60 1021.5
20260503034412 18 307 3.2 3.2 0.00 0.00 0.00 60 1021.3
20260503033913 18 336 4.8 6.4 0.00 0.00 0.00 60 1021.3
20260503033412 18 4 1.6 3.2 0.00 0.00 0.00 60 1021.2
20260503032912 18 351 3.2 3.2 0.00 0.00 0.00 60 1021.1
20260503032412 18 287 1.6 3.2 0.00 0.00 0.00 61 1021.1
20260503031912 18 339 3.2 4.8 0.00 0.00 0.00 61 1021.4
20260503031412 18 319 4.8 6.4 0.00 0.00 0.00 60 1021.1
20260503030913 18 343 3.2 4.8 0.00 0.00 0.00 60 1021.0
20260503030413 18 331 1.6 3.2 0.00 0.00 0.00 60 1021.0
20260503025912 18 357 3.2 3.2 0.00 0.00 0.00 59 1021.0
20260503025412 18 336 1.6 3.2 0.00 0.00 0.00 59 1021.0
20260503024912 19 202 1.6 3.2 0.00 0.00 0.00 58 1020.6
20260503024412 19 7 3.2 4.8 0.00 0.00 0.00 58 1020.6
20260503023913 19 313 3.2 3.2 0.00 0.00 0.00 57 1020.5
20260503023413 19 296 4.8 6.4 0.00 0.00 0.00 57 1020.5
20260503022912 19 290 3.2 4.8 0.00 0.00 0.00 57 1020.6
20260503022412 19 6 1.6 3.2 0.00 0.00 0.00 56 1020.7
20260503021912 19 288 3.2 4.8 0.00 0.00 0.00 56 1020.7
20260503021412 19 297 1.6 3.2 0.00 0.00 0.00 56 1020.8
20260503020913 20 352 4.8 6.4 0.00 0.00 0.00 56 1020.6
20260503020413 20 326 6.4 8.0 0.00 0.00 0.00 55 1020.4
20260503015913 20 313 1.6 3.2 0.00 0.00 0.00 56 1020.1
20260503015412 20 5 4.8 6.4 0.00 0.00 0.00 55 1020.3
20260503014912 20 336 4.8 8.0 0.00 0.00 0.00 55 1020.3
20260503014412 20 352 3.2 6.4 0.00 0.00 0.00 56 1020.3
20260503013913 20 15 3.2 4.8 0.00 0.00 0.00 56 1020.5
20260503013412 20 14 4.8 6.4 0.00 0.00 0.00 56 1020.2
20260503012912 20 24 3.2 4.8 0.00 0.00 0.00 56 1020.4
20260503012412 20 335 4.8 6.4 0.00 0.00 0.00 56 1020.3
20260503011912 20 30 3.2 8.0 0.00 0.00 0.00 55 1020.2
20260503011412 20 14 4.8 6.4 0.00 0.00 0.00 55 1020.3
20260503010913 20 327 4.8 6.4 0.00 0.00 0.00 56 1020.0
20260503010412 20 353 3.2 6.4 0.00 0.00 0.00 55 1019.9
20260503005912 20 71 4.8 8.0 0.00 0.00 0.00 55 1019.9
20260503005412 20 310 3.2 4.8 0.00 0.00 0.00 55 1019.7
20260503004912 20 300 1.6 3.2 0.00 0.00 0.00 56 1019.7
20260503004412 20 348 6.4 8.0 0.00 0.00 0.00 55 1019.8
20260503003913 20 346 8.0 11.3 0.00 0.00 0.00 55 1019.7